Home   Weather   USA   Akron   Past weeks
Flag for USA

Past Weather in Akron, Ohio, USA — Yesterday and Last 2 Weeks

Currently: 59 °F. Mostly cloudy. (Weather station: Akron Fulton International Airport, USA). See more current weather

Past Weather in Akron — Graph

°F

Akron Temperature Yesterday

Maximum temperature yesterday: 64 °F (at 12:30 am)
Minimum temperature yesterday: 52 °F (at 11:01 pm)
Average temperature yesterday: 60 °F

High & Low Weather Summary for the Past Weeks

 TemperatureHumidityPressure
High83 °F (Apr 8, 2:54 pm)87% (Mar 31, 6:36 am)30.50 "Hg (Mar 31, 6:36 am)
Low24 °F (Apr 2, 5:54 am)21% (Mar 30, 4:54 pm)29.41 "Hg (Apr 11, 4:54 am)
Average53 °F57%29.96 "Hg
* Reported Mar 28 5:54 pm — Apr 12 5:54 pm, Akron. Weather by CustomWeather, © 2021

Note: Actual official high and low records may vary slightly from our data, if they occured in-between our weather recording intervals... More about our weather records

Akron Weather History for the Previous 24 Hours

Scroll right to see more
 ConditionsComfort  
Time TempWeatherWind HumidityBarometerVisibility
5:54 pm
Mon, Apr 12
58 °FMostly cloudy.7 mph67%29.79 "Hg10 mi
5:24 pm57 °FMostly cloudy.6 mph74%29.78 "Hg10 mi
4:54 pm57 °FCloudy.7 mph72%29.76 "Hg10 mi
4:41 pm57 °FCloudy.8 mph72%29.76 "Hg10 mi
3:54 pm56 °FCloudy.9 mph72%29.74 "Hg10 mi
2:54 pm53 °FLight rain. Overcast.9 mph80%29.73 "Hg3 mi
1:54 pm53 °FLight rain. Mostly cloudy.13 mph80%29.71 "Hg6 mi
1:38 pm53 °FLight rain. Mostly cloudy.12 mph80%29.70 "Hg5 mi
1:20 pm53 °FHeavy rain. Mostly cloudy.10 mph83%29.70 "Hg1 mi
1:11 pm54 °FRain. Cloudy.10 mph80%29.69 "Hg2 mi
12:54 pm54 °FLight rain. Cloudy.7 mph80%29.68 "Hg5 mi
12:39 pm53 °FLight rain. Mostly cloudy.12 mph83%29.68 "Hg3 mi
12:14 pm56 °FPartly sunny.8 mph72%29.67 "Hg10 mi
11:54 am57 °FBroken clouds.8 mph74%29.66 "Hg10 mi
11:26 am54 °FLight rain. More clouds than sun.7 mph77%29.66 "Hg6 mi
11:14 am55 °FLight rain. Mostly cloudy.10 mph77%29.66 "Hg8 mi
11:04 am55 °FLight rain. Cloudy.6 mph77%29.66 "Hg7 mi
10:54 am55 °FMostly cloudy.5 mph77%29.65 "Hg7 mi
10:11 am54 °FMore clouds than sun.7 mph80%29.64 "Hg10 mi
10:07 am54 °FCloudy.10 mph80%29.64 "Hg10 mi
9:54 am53 °FCloudy.7 mph83%29.64 "Hg10 mi
9:18 am52 °FCloudy.6 mph83%29.63 "Hg10 mi
8:58 am52 °FLight rain. Cloudy.8 mph83%29.62 "Hg3 mi
8:27 am52 °FMostly cloudy.7 mph83%29.62 "Hg10 mi
8:08 am52 °FLight rain. Mostly cloudy.7 mph83%29.61 "Hg7 mi
7:54 am52 °FBroken clouds.7 mph83%29.60 "Hg10 mi
7:27 am51 °FMostly cloudy.8 mph83%29.60 "Hg10 mi
7:18 am51 °FLight rain. Cloudy.8 mph86%29.59 "Hg8 mi
7:07 am52 °FMore clouds than sun.7 mph80%29.59 "Hg10 mi
6:54 am51 °FMostly cloudy.7 mph86%29.58 "Hg10 mi
6:17 am51 °FMostly cloudy.8 mph83%29.57 "Hg10 mi
6:04 am51 °FMostly cloudy.7 mph83%29.57 "Hg10 mi
6:00 am51 °FOvercast.7 mph83%29.57 "Hg10 mi
5:34 am51 °FLight rain. Mostly cloudy.8 mph86%29.56 "Hg9 mi
4:54 am51 °FMostly cloudy.7 mph86%29.55 "Hg9 mi
4:26 am51 °FMostly cloudy.7 mph86%29.55 "Hg10 mi
4:19 am51 °FMostly cloudy.7 mph86%29.55 "Hg10 mi
4:08 am51 °FOvercast.6 mph86%29.55 "Hg10 mi
3:54 am51 °FMostly cloudy.6 mph86%29.54 "Hg8 mi
3:32 am51 °FMostly cloudy.3 mph83%29.55 "Hg4 mi
2:54 am51 °FMostly cloudy.6 mph86%29.54 "Hg10 mi
2:02 am52 °FMostly cloudy.5 mph83%29.55 "Hg10 mi
1:23 am52 °FOvercast.8 mph83%29.55 "Hg10 mi
12:54 am52 °FMostly cloudy.6 mph83%29.54 "Hg10 mi
12:29 am52 °FLight rain. Overcast.6 mph83%29.55 "Hg10 mi
11:54 pm
Sun, Apr 11
52 °FMostly cloudy.7 mph83%29.54 "Hg10 mi
11:19 pm52 °FLight rain. Mostly cloudy.5 mph86%29.55 "Hg10 mi
11:07 pm52 °FLight rain. Fog.7 mph86%29.55 "Hg3 mi
11:01 pm52 °FRain. Mostly cloudy.6 mph83%29.55 "Hg2 mi
10:38 pm53 °FMostly cloudy.3 mph80%29.55 "Hg10 mi
9:54 pm54 °FLight rain. Mostly cloudy.7 mph72%29.54 "Hg10 mi
8:54 pm55 °FMostly cloudy.12 mph67%29.52 "Hg10 mi
7:54 pm57 °FMostly cloudy.13 mph60%29.50 "Hg10 mi
Weather by CustomWeather, © 2021

See weather overview